Regional Weather Roundup
Issued by NWS Charleston, WV

Home | Current Version | Previous Version | Text Only | Print | Product List | Glossary Off
Versions: 1 2 3 4 5 6 7 8 9 10 11 12 13 14 15 16 17 18 19 20 21 22 23 24 25 26 27 28 29 30 31 32 33 34 35 36 37 38 39 40 41 42 43 44 45 46 47 48 49 50

000
ASUS41 KRLX 281010
RWRRLX
West Virginia Regional Weather Roundup
National Weather Service Charleston WV
500 AM EST SAT FEB 28 2015

Note: "fair" indicates few or no clouds below 12,000 feet with no
significant weather and/or obstructions to visibility.

WVZ003-281100-
Northern Panhandle of West Virginia

CITY           SKY/WX    TMP DP  RH WIND       PRES   REMARKS
WHEELING       CLEAR      5  -4  66 CALM      30.69R
$$

WVZ009-281100-
Northwest West Virginia

CITY           SKY/WX    TMP DP  RH WIND       PRES   REMARKS
PARKERSBURG    PTCLDY     6   1  80 CALM      30.73R
$$

WVZ006-281100-
Western West Virginia

CITY           SKY/WX    TMP DP  RH WIND       PRES   REMARKS
HUNTINGTON     CLOUDY    14   3  61 E6        30.67R WCI   5
$$

WVZ015-281100-
West Central West Virginia

CITY           SKY/WX    TMP DP  RH WIND       PRES   REMARKS
CHARLESTON     MOCLDY    16   5  62 E3        30.67R
$$

WVZ022-031-281100-
North Central West Virginia

CITY           SKY/WX    TMP DP  RH WIND       PRES   REMARKS
CLARKSBURG     CLEAR      7   2  80 NE3       30.67R
MORGANTOWN     PTCLDY     8  -1  66 CALM      30.69R
$$

WVZ025-035-042-045-281100-
Southern West Virginia

CITY           SKY/WX    TMP DP  RH WIND       PRES   REMARKS
BECKLEY        CLOUDY     9   3  77 CALM      30.53R
LOGAN          CLOUDY    16   7  67 CALM      30.56R
BLUEFIELD      PTCLDY    11   2  67 E5        30.49R WCI   3
LEWISBURG      PTCLDY     7   0  73 CALM      30.57R
$$

WVZ047-281100-
Northern Mountains of West Virginia

CITY           SKY/WX    TMP DP  RH WIND       PRES   REMARKS
ELKINS         PTCLDY    -2  -4  91 CALM      30.61R
$$

WVZ052-281100-
Eastern Panhandle of West Virginia

CITY           SKY/WX    TMP DP  RH WIND       PRES   REMARKS
MARTINSBURG    CLEAR     17  -1  45 CALM      30.75R
PETERSBURG     PTCLDY    12   4  70 CALM      30.71R
$$



USA.gov is the U.S. government's official web portal to all federal, state and local government web resources and services.